| time (UTC) | temp F | wind direction | speed knots | gust knots | rain 1hr in | rain 24hr in | rain mn in | humidity % | barometer mb |
| 20260507040536 | 56 | 194 | 1.7 | 0.0 | 0.00 | 0.00 | 0.01 | 88 | 1015.6 |
| 20260507040036 | 56 | 217 | 1.7 | 0.0 | 0.00 | 0.00 | 0.01 | 88 | 1015.6 |
| 20260507035534 | 56 | 167 | 1.7 | 0.0 | 0.00 | 0.00 | 0.01 | 87 | 1015.5 |
| 20260507035034 | 57 | 157 | 1.7 | 0.0 | 0.00 | 0.00 | 0.01 | 86 | 1015.5 |
| 20260507034537 | 57 | 159 | 2.6 | 0.0 | 0.00 | 0.00 | 0.01 | 84 | 1015.5 |
| 20260507034034 | 57 | 151 | 3.5 | 0.0 | 0.00 | 0.00 | 0.01 | 83 | 1015.3 |
| 20260507033534 | 57 | 276 | 3.5 | 0.0 | 0.00 | 0.00 | 0.01 | 83 | 1015.3 |
| 20260507033034 | 57 | 162 | 3.5 | 0.0 | 0.00 | 0.00 | 0.01 | 83 | 1015.3 |
| 20260507032535 | 57 | 237 | 4.3 | 0.0 | 0.00 | 0.00 | 0.01 | 83 | 1015.0 |
| 20260507032038 | 57 | 298 | 4.3 | 0.0 | 0.00 | 0.00 | 0.01 | 85 | 1015.0 |
| 20260507031534 | 56 | 263 | 3.5 | 0.0 | 0.00 | 0.00 | 0.01 | 86 | 1015.0 |
| 20260507031036 | 56 | 306 | 4.3 | 0.0 | 0.00 | 0.00 | 0.01 | 85 | 1015.1 |
| 20260507030534 | 56 | 269 | 4.3 | 0.0 | 0.00 | 0.00 | 0.01 | 86 | 1015.1 |
| 20260507030032 | 56 | 247 | 5.2 | 0.0 | 0.00 | 0.00 | 0.01 | 86 | 1015.1 |
| 20260507025533 | 56 | 244 | 5.2 | 0.0 | 0.00 | 0.00 | 0.01 | 85 | 1015.0 |
| 20260507025033 | 57 | 286 | 4.3 | 0.0 | 0.00 | 0.00 | 0.01 | 85 | 1015.0 |
| 20260507024533 | 57 | 244 | 4.3 | 0.0 | 0.00 | 0.00 | 0.01 | 83 | 1015.0 |
| 20260507024032 | 57 | 299 | 5.2 | 0.0 | 0.00 | 0.00 | 0.01 | 82 | 1014.8 |
| 20260507023532 | 57 | 259 | 5.2 | 0.0 | 0.00 | 0.00 | 0.01 | 81 | 1014.8 |
| 20260507023034 | 58 | 270 | 5.2 | 0.0 | 0.00 | 0.00 | 0.01 | 80 | 1014.8 |
| 20260507022533 | 58 | 271 | 5.2 | 0.0 | 0.00 | 0.00 | 0.01 | 79 | 1014.7 |
| 20260507022034 | 58 | 229 | 5.2 | 0.0 | 0.00 | 0.00 | 0.01 | 80 | 1014.7 |
| 20260507021534 | 57 | 298 | 5.2 | 0.0 | 0.00 | 0.00 | 0.01 | 82 | 1014.7 |
| 20260507021034 | 58 | 292 | 5.2 | 0.0 | 0.00 | 0.00 | 0.01 | 83 | 1014.7 |
| 20260507020532 | 58 | 309 | 4.3 | 0.0 | 0.00 | 0.00 | 0.01 | 83 | 1014.7 |
| 20260507020040 | 59 | 242 | 3.5 | 0.0 | 0.00 | 0.00 | 0.01 | 82 | 1014.7 |
| 20260507015531 | 59 | 127 | 3.5 | 0.0 | 0.00 | 0.00 | 0.01 | 81 | 1014.7 |
| 20260507015031 | 58 | 217 | 4.3 | 0.0 | 0.00 | 0.00 | 0.01 | 81 | 1014.7 |
| 20260507014532 | 58 | 250 | 5.2 | 0.0 | 0.00 | 0.00 | 0.01 | 80 | 1014.7 |
| 20260507014031 | 58 | 141 | 5.2 | 0.0 | 0.00 | 0.00 | 0.01 | 81 | 1014.6 |
| 20260507013531 | 59 | 286 | 4.3 | 0.0 | 0.00 | 0.00 | 0.01 | 82 | 1014.6 |
| 20260507013046 | 59 | 294 | 4.3 | 0.0 | 0.00 | 0.00 | 0.01 | 81 | 1014.6 |
| 20260507012531 | 59 | 333 | 5.2 | 0.0 | 0.00 | 0.00 | 0.01 | 81 | 1014.6 |
| 20260507012031 | 59 | 281 | 5.2 | 0.0 | 0.00 | 0.00 | 0.01 | 78 | 1014.6 |
| 20260507011533 | 59 | 259 | 5.2 | 0.0 | 0.00 | 0.00 | 0.01 | 77 | 1014.6 |
| 20260507011030 | 60 | 308 | 4.3 | 0.0 | 0.00 | 0.00 | 0.01 | 77 | 1014.6 |
| 20260507010530 | 60 | 290 | 4.3 | 0.0 | 0.00 | 0.00 | 0.01 | 76 | 1014.6 |
| 20260507010035 | 60 | 263 | 4.3 | 0.0 | 0.00 | 0.00 | 0.01 | 77 | 1014.6 |
| 20260507005530 | 60 | 281 | 5.2 | 0.0 | 0.00 | 0.00 | 0.01 | 78 | 1014.6 |
| 20260507005029 | 60 | 315 | 4.3 | 0.0 | 0.00 | 0.00 | 0.01 | 75 | 1014.6 |
| 20260507004529 | 60 | 294 | 4.3 | 0.0 | 0.00 | 0.00 | 0.01 | 79 | 1014.6 |
| 20260507004029 | 60 | 319 | 4.3 | 0.0 | 0.00 | 0.00 | 0.01 | 79 | 1014.6 |
| 20260507003530 | 60 | 261 | 3.5 | 0.0 | 0.00 | 0.00 | 0.01 | 79 | 1014.6 |
| 20260507003040 | 61 | 237 | 2.6 | 0.0 | 0.00 | 0.00 | 0.01 | 81 | 1014.6 |
| 20260507002529 | 62 | 235 | 2.6 | 0.0 | 0.00 | 0.00 | 0.01 | 80 | 1014.5 |
| 20260507002029 | 62 | 228 | 2.6 | 0.0 | 0.00 | 0.00 | 0.01 | 80 | 1014.5 |
| 20260507001530 | 62 | 191 | 2.6 | 0.0 | 0.00 | 0.00 | 0.01 | 80 | 1014.5 |
| 20260507001029 | 62 | 225 | 2.6 | 0.0 | 0.00 | 0.00 | 0.01 | 81 | 1014.5 |
| 20260507000528 | 62 | 212 | 2.6 | 0.0 | 0.00 | 0.00 | 0.01 | 80 | 1014.5 |
| 20260507000034 | 62 | 191 | 2.6 | 0.0 | 0.00 | 0.00 | 0.01 | 80 | 1014.5 |
| 20260506235528 | 62 | 315 | 2.6 | 0.0 | 0.00 | 0.00 | 0.01 | 79 | 1014.5 |
| 20260506235027 | 62 | 242 | 2.6 | 0.0 | 0.00 | 0.00 | 0.01 | 80 | 1014.5 |
| 20260506234528 | 63 | 217 | 2.6 | 0.0 | 0.00 | 0.00 | 0.01 | 79 | 1014.5 |
| 20260506234027 | 63 | 248 | 3.5 | 0.0 | 0.00 | 0.00 | 0.01 | 80 | 1014.5 |
| 20260506233527 | 62 | 175 | 4.3 | 0.0 | 0.00 | 0.00 | 0.01 | 78 | 1014.5 |
| 20260506233028 | 62 | 190 | 3.5 | 0.0 | 0.00 | 0.00 | 0.01 | 76 | 1014.5 |
| 20260506232526 | 63 | 360 | 3.5 | 0.0 | 0.00 | 0.00 | 0.01 | 73 | 1014.7 |
| 20260506232026 | 63 | 214 | 4.3 | 0.0 | 0.00 | 0.00 | 0.01 | 74 | 1014.7 |
| 20260506231526 | 63 | 227 | 3.5 | 0.0 | 0.00 | 0.00 | 0.01 | 75 | 1014.7 |
| 20260506231026 | 64 | 236 | 3.5 | 0.0 | 0.00 | 0.00 | 0.01 | 72 | 1014.9 |
| 20260506230526 | 64 | 360 | 4.3 | 0.0 | 0.00 | 0.00 | 0.01 | 72 | 1014.9 |
| 20260506230025 | 64 | 207 | 4.3 | 0.0 | 0.00 | 0.00 | 0.01 | 73 | 1014.9 |
| 20260506225524 | 64 | 200 | 3.5 | 0.0 | 0.00 | 0.00 | 0.01 | 73 | 1015.0 |
| 20260506225024 | 64 | 360 | 3.5 | 0.0 | 0.00 | 0.00 | 0.01 | 74 | 1015.0 |
| 20260506224525 | 64 | 360 | 3.5 | 0.0 | 0.00 | 0.00 | 0.01 | 74 | 1015.0 |
| 20260506224029 | 64 | 360 | 3.5 | 0.0 | 0.00 | 0.00 | 0.01 | 73 | 1015.2 |
| 20260506223523 | 63 | 360 | 4.3 | 0.0 | 0.00 | 0.00 | 0.01 | 75 | 1015.2 |
| 20260506223024 | 63 | 209 | 5.2 | 0.0 | 0.00 | 0.00 | 0.01 | 72 | 1015.2 |
| 20260506222523 | 64 | 209 | 4.3 | 0.0 | 0.00 | 0.00 | 0.01 | 73 | 1015.4 |
| 20260506222028 | 64 | 360 | 3.5 | 0.0 | 0.00 | 0.00 | 0.01 | 72 | 1015.4 |
| 20260506221523 | 64 | 360 | 4.3 | 0.0 | 0.00 | 0.00 | 0.01 | 71 | 1015.4 |
| 20260506221023 | 64 | 360 | 4.3 | 0.0 | 0.00 | 0.00 | 0.01 | 71 | 1015.5 |
| 20260506220523 | 64 | 215 | 3.5 | 0.0 | 0.00 | 0.00 | 0.01 | 69 | 1015.5 |
| 20260506220025 | 64 | 214 | 3.5 | 0.0 | 0.00 | 0.00 | 0.01 | 70 | 1015.5 |
| 20260506215521 | 63 | 209 | 3.5 | 0.0 | 0.00 | 0.00 | 0.01 | 72 | 1015.7 |
| 20260506215024 | 64 | 202 | 3.5 | 0.0 | 0.00 | 0.00 | 0.01 | 73 | 1015.7 |
| 20260506214535 | 64 | 360 | 3.5 | 0.0 | 0.00 | 0.00 | 0.01 | 73 | 1015.7 |
| 20260506214020 | 63 | 165 | 3.5 | 0.0 | 0.00 | 0.00 | 0.01 | 75 | 1015.7 |
| 20260506213519 | 63 | 360 | 3.5 | 0.0 | 0.00 | 0.00 | 0.01 | 75 | 1015.7 |
| 20260506213021 | 63 | 360 | 3.5 | 0.0 | 0.00 | 0.00 | 0.01 | 76 | 1015.7 |
| 20260506212521 | 63 | 227 | 3.5 | 0.0 | 0.00 | 0.00 | 0.01 | 72 | 1016.0 |
| 20260506212020 | 63 | 210 | 4.3 | 0.0 | 0.00 | 0.00 | 0.01 | 75 | 1016.0 |
| 20260506211520 | 63 | 211 | 4.3 | 0.0 | 0.00 | 0.00 | 0.01 | 75 | 1016.0 |
| 20260506211019 | 63 | 269 | 3.5 | 0.0 | 0.00 | 0.00 | 0.01 | 76 | 1016.1 |
| 20260506210519 | 63 | 234 | 3.5 | 0.0 | 0.00 | 0.00 | 0.01 | 74 | 1016.1 |
| 20260506210021 | 63 | 360 | 3.5 | 0.0 | 0.00 | 0.00 | 0.01 | 71 | 1016.1 |
| 20260506205517 | 63 | 179 | 3.5 | 0.0 | 0.00 | 0.00 | 0.01 | 66 | 1016.1 |
| 20260506205018 | 63 | 230 | 3.5 | 0.0 | 0.00 | 0.00 | 0.01 | 67 | 1016.1 |
| 20260506204518 | 63 | 360 | 2.6 | 0.0 | 0.00 | 0.00 | 0.01 | 68 | 1016.1 |
| 20260506204017 | 63 | 190 | 2.6 | 0.0 | 0.00 | 0.00 | 0.01 | 69 | 1016.0 |
| 20260506203517 | 63 | 205 | 3.5 | 0.0 | 0.00 | 0.00 | 0.01 | 68 | 1016.0 |
| 20260506203020 | 63 | 360 | 2.6 | 0.0 | 0.00 | 0.00 | 0.01 | 69 | 1016.0 |
| 20260506202517 | 63 | 360 | 3.5 | 0.0 | 0.00 | 0.00 | 0.01 | 65 | 1016.3 |
| 20260506202017 | 63 | 242 | 3.5 | 0.0 | 0.00 | 0.00 | 0.01 | 68 | 1016.3 |
| 20260506201517 | 63 | 153 | 3.5 | 0.0 | 0.00 | 0.00 | 0.01 | 67 | 1016.3 |
| 20260506201019 | 63 | 182 | 3.5 | 0.0 | 0.00 | 0.00 | 0.01 | 64 | 1016.5 |
| 20260506200515 | 63 | 360 | 2.6 | 0.0 | 0.00 | 0.00 | 0.01 | 67 | 1016.5 |
| 20260506200014 | 62 | 155 | 2.6 | 0.0 | 0.00 | 0.00 | 0.01 | 69 | 1016.5 |
| 20260506195513 | 62 | 173 | 3.5 | 0.0 | 0.00 | 0.00 | 0.01 | 66 | 1016.6 |
| 20260506195013 | 62 | 169 | 3.5 | 0.0 | 0.00 | 0.00 | 0.01 | 72 | 1016.6 |
| 20260506194513 | 62 | 360 | 4.3 | 0.0 | 0.00 | 0.00 | 0.01 | 71 | 1016.6 |
| 20260506194017 | 62 | 200 | 3.5 | 0.0 | 0.00 | 0.00 | 0.01 | 69 | 1016.5 |
| 20260506193512 | 62 | 171 | 3.5 | 0.0 | 0.00 | 0.00 | 0.01 | 71 | 1016.5 |
| 20260506193014 | 62 | 219 | 3.5 | 0.0 | 0.00 | 0.00 | 0.01 | 74 | 1016.5 |
| 20260506192511 | 62 | 360 | 3.5 | 0.0 | 0.00 | 0.00 | 0.01 | 74 | 1016.8 |
| 20260506192011 | 62 | 148 | 3.5 | 0.0 | 0.00 | 0.00 | 0.01 | 75 | 1016.8 |
| 20260506191511 | 62 | 152 | 3.5 | 0.0 | 0.00 | 0.00 | 0.01 | 74 | 1016.8 |
| 20260506191011 | 62 | 185 | 3.5 | 0.0 | 0.00 | 0.00 | 0.01 | 71 | 1016.9 |
| 20260506190518 | 61 | 155 | 3.5 | 0.0 | 0.00 | 0.00 | 0.01 | 71 | 1016.9 |
| 20260506190013 | 62 | 360 | 3.5 | 0.0 | 0.00 | 0.00 | 0.01 | 73 | 1016.9 |
| 20260506185508 | 62 | 244 | 2.6 | 0.0 | 0.00 | 0.00 | 0.01 | 75 | 1017.0 |
| 20260506185008 | 61 | 360 | 3.5 | 0.0 | 0.00 | 0.00 | 0.01 | 74 | 1017.0 |
| 20260506184510 | 62 | 131 | 2.6 | 0.0 | 0.00 | 0.00 | 0.01 | 75 | 1017.0 |
| 20260506184013 | 62 | 162 | 2.6 | 0.0 | 0.00 | 0.00 | 0.01 | 75 | 1017.1 |
| 20260506183507 | 61 | 360 | 3.5 | 0.0 | 0.00 | 0.00 | 0.01 | 76 | 1017.1 |
| 20260506183013 | 61 | 360 | 2.6 | 0.0 | 0.00 | 0.00 | 0.01 | 77 | 1017.1 |
| 20260506182506 | 61 | 204 | 2.6 | 0.0 | 0.00 | 0.00 | 0.01 | 78 | 1017.1 |
| 20260506182010 | 61 | 172 | 3.5 | 0.0 | 0.00 | 0.00 | 0.01 | 77 | 1017.1 |
| 20260506181512 | 61 | 162 | 3.5 | 0.0 | 0.00 | 0.00 | 0.01 | 78 | 1017.1 |
| 20260506181010 | 61 | 174 | 3.5 | 0.0 | 0.00 | 0.00 | 0.01 | 78 | 1017.2 |
| 20260506180505 | 61 | 172 | 2.6 | 0.0 | 0.00 | 0.00 | 0.01 | 79 | 1017.2 |
| 20260506180005 | 61 | 65 | 2.6 | 0.0 | 0.00 | 0.00 | 0.01 | 80 | 1017.2 |
| 20260506175504 | 61 | 360 | 2.6 | 0.0 | 0.00 | 0.00 | 0.01 | 80 | 1017.1 |
| 20260506175002 | 61 | 190 | 2.6 | 0.0 | 0.00 | 0.00 | 0.01 | 80 | 1017.1 |
| 20260506174502 | 61 | 190 | 2.6 | 0.0 | 0.00 | 0.00 | 0.01 | 80 | 1017.1 |
| 20260506174002 | 60 | 107 | 2.6 | 0.0 | 0.00 | 0.00 | 0.01 | 81 | 1017.1 |
| 20260506173503 | 60 | 169 | 2.6 | 0.0 | 0.00 | 0.00 | 0.01 | 82 | 1017.1 |
| 20260506173002 | 60 | 171 | 2.6 | 0.0 | 0.00 | 0.00 | 0.01 | 82 | 1017.1 |
| 20260506172502 | 60 | 186 | 2.6 | 0.0 | 0.00 | 0.00 | 0.01 | 81 | 1017.1 |
| 20260506172003 | 60 | 144 | 2.6 | 0.0 | 0.00 | 0.00 | 0.01 | 81 | 1017.1 |
| 20260506171605 | 60 | 197 | 2.6 | 0.0 | 0.00 | 0.00 | 0.01 | 81 | 1017.1 |
| 20260506171103 | 60 | 132 | 1.7 | 0.0 | 0.00 | 0.00 | 0.01 | 81 | 1016.9 |
| 20260506170601 | 60 | 163 | 1.7 | 0.0 | 0.00 | 0.00 | 0.01 | 82 | 1016.9 |
| 20260506170058 | 60 | 175 | 2.6 | 0.0 | 0.00 | 0.00 | 0.01 | 82 | 1016.9 |
| 20260506165600 | 60 | 221 | 1.7 | 0.0 | 0.00 | 0.00 | 0.01 | 83 | 1016.9 |
| 20260506165057 | 60 | 212 | 1.7 | 0.0 | 0.00 | 0.00 | 0.01 | 83 | 1016.9 |
| 20260506164607 | 59 | 175 | 1.7 | 0.0 | 0.00 | 0.00 | 0.01 | 84 | 1016.9 |
| 20260506164058 | 59 | 166 | 1.7 | 0.0 | 0.00 | 0.00 | 0.01 | 84 | 1016.8 |
| 20260506163555 | 59 | 189 | 2.6 | 0.0 | 0.00 | 0.00 | 0.01 | 85 | 1016.8 |
| 20260506163055 | 59 | 209 | 1.7 | 0.0 | 0.00 | 0.00 | 0.01 | 85 | 1016.8 |
| 20260506162554 | 59 | 175 | 1.7 | 0.0 | 0.00 | 0.00 | 0.01 | 86 | 1016.8 |
| 20260506162056 | 58 | 209 | 1.7 | 0.0 | 0.00 | 0.00 | 0.01 | 87 | 1016.8 |
| 20260506161551 | 58 | 188 | 2.6 | 0.0 | 0.00 | 0.00 | 0.01 | 87 | 1016.8 |
| 20260506161053 | 58 | 121 | 2.6 | 0.0 | 0.00 | 0.00 | 0.01 | 87 | 1016.9 |
| 20260506160549 | 57 | 203 | 2.6 | 0.0 | 0.00 | 0.00 | 0.01 | 88 | 1016.9 |
| 20260506160053 | 57 | 142 | 2.6 | 0.0 | 0.00 | 0.00 | 0.01 | 89 | 1016.9 |
| 20260506155549 | 57 | 161 | 2.6 | 0.0 | 0.00 | 0.00 | 0.01 | 90 | 1016.8 |
| 20260506155045 | 56 | 184 | 1.7 | 0.0 | 0.00 | 0.00 | 0.01 | 91 | 1016.8 |
| 20260506154543 | 56 | 195 | 1.7 | 0.0 | 0.00 | 0.00 | 0.01 | 92 | 1016.8 |
| 20260506154044 | 56 | 171 | 1.7 | 0.0 | 0.00 | 0.00 | 0.01 | 91 | 1016.9 |
| 20260506153542 | 55 | 207 | 1.7 | 0.0 | 0.00 | 0.00 | 0.01 | 91 | 1016.9 |
| 20260506153104 | 55 | 138 | 1.7 | 0.0 | 0.00 | 0.00 | 0.01 | 91 | 1016.9 |
| 20260506152540 | 55 | 170 | 0.9 | 0.0 | 0.00 | 0.00 | 0.01 | 91 | 1017.0 |
| 20260506152040 | 55 | 190 | 0.9 | 0.0 | 0.00 | 0.00 | 0.01 | 91 | 1017.0 |
| 20260506151543 | 55 | 192 | 0.9 | 0.0 | 0.00 | 0.00 | 0.01 | 92 | 1017.0 |
| 20260506151042 | 54 | 173 | 0.9 | 0.0 | 0.00 | 0.00 | 0.01 | 93 | 1016.9 |
| 20260506150537 | 54 | 173 | 0.9 | 0.0 | 0.00 | 0.00 | 0.01 | 93 | 1016.9 |
| 20260506150042 | 54 | 219 | 0.9 | 0.0 | 0.00 | 0.00 | 0.01 | 94 | 1016.9 |
| 20260506145535 | 53 | 163 | 0.9 | 0.0 | 0.00 | 0.00 | 0.01 | 94 | 1017.0 |
| 20260506145034 | 53 | 135 | 0.9 | 0.0 | 0.00 | 0.00 | 0.01 | 94 | 1017.0 |
| 20260506144533 | 53 | 139 | 0.9 | 0.0 | 0.00 | 0.00 | 0.01 | 94 | 1017.0 |
| 20260506144033 | 53 | 103 | 0.9 | 0.0 | 0.00 | 0.00 | 0.01 | 94 | 1017.0 |
| 20260506143533 | 53 | 175 | 0.0 | 0.0 | 0.00 | 0.00 | 0.01 | 95 | 1017.0 |
| 20260506143033 | 53 | 109 | 0.0 | 0.0 | 0.00 | 0.00 | 0.01 | 95 | 1017.0 |
| 20260506142532 | 53 | 65 | 0.0 | 0.0 | 0.00 | 0.00 | 0.01 | 95 | 1017.0 |
| 20260506142032 | 52 | 65 | 0.0 | 0.0 | 0.00 | 0.00 | 0.01 | 95 | 1017.0 |
| 20260506141531 | 52 | 65 | 0.0 | 0.0 | 0.00 | 0.00 | 0.01 | 95 | 1017.0 |
| 20260506141031 | 52 | 65 | 0.0 | 0.0 | 0.00 | 0.00 | 0.01 | 95 | 1016.9 |
| 20260506140530 | 52 | 355 | 0.0 | 0.0 | 0.00 | 0.00 | 0.01 | 95 | 1016.9 |
| 20260506140030 | 52 | 355 | 0.0 | 0.0 | 0.00 | 0.00 | 0.01 | 95 | 1016.9 |
| 20260506135528 | 52 | 355 | 0.0 | 0.0 | 0.00 | 0.00 | 0.01 | 95 | 1016.7 |
| 20260506135028 | 51 | 355 | 0.0 | 0.0 | 0.00 | 0.00 | 0.01 | 95 | 1016.7 |
| 20260506134531 | 51 | 355 | 0.0 | 0.0 | 0.00 | 0.00 | 0.01 | 95 | 1016.7 |
| 20260506134028 | 51 | 355 | 0.0 | 0.0 | 0.00 | 0.00 | 0.01 | 95 | 1016.7 |
| 20260506133528 | 51 | 355 | 0.0 | 0.0 | 0.00 | 0.00 | 0.01 | 95 | 1016.7 |
| 20260506133028 | 50 | 355 | 0.0 | 0.0 | 0.00 | 0.00 | 0.01 | 95 | 1016.7 |
| 20260506132531 | 50 | 355 | 0.0 | 0.0 | 0.00 | 0.00 | 0.01 | 95 | 1016.5 |
| 20260506132027 | 50 | 355 | 0.0 | 0.0 | 0.00 | 0.00 | 0.01 | 95 | 1016.5 |
| 20260506131534 | 50 | 5 | 0.0 | 0.0 | 0.00 | 0.00 | 0.01 | 95 | 1016.5 |
| 20260506131027 | 50 | 5 | 0.0 | 0.0 | 0.00 | 0.00 | 0.01 | 95 | 1016.3 |
| 20260506130527 | 50 | 5 | 0.0 | 0.0 | 0.00 | 0.00 | 0.01 | 95 | 1016.3 |
| 20260506130027 | 50 | 5 | 0.0 | 0.0 | 0.00 | 0.00 | 0.01 | 95 | 1016.3 |
| 20260506125525 | 50 | 5 | 0.0 | 0.0 | 0.00 | 0.00 | 0.01 | 95 | 1016.0 |
| 20260506125028 | 50 | 5 | 0.0 | 0.0 | 0.00 | 0.00 | 0.00 | 95 | 1016.0 |
| 20260506124525 | 50 | 5 | 0.0 | 0.0 | 0.00 | 0.00 | 0.00 | 95 | 1016.0 |
| 20260506124025 | 50 | 5 | 0.0 | 0.0 | 0.00 | 0.00 | 0.00 | 95 | 1015.9 |
| 20260506123526 | 50 | 5 | 0.0 | 0.0 | 0.00 | 0.00 | 0.00 | 95 | 1015.9 |
| 20260506123024 | 50 | 5 | 0.0 | 0.0 | 0.00 | 0.00 | 0.00 | 95 | 1015.9 |
| 20260506122525 | 50 | 5 | 0.0 | 0.0 | 0.00 | 0.00 | 0.00 | 95 | 1015.8 |
| 20260506122026 | 50 | 5 | 0.0 | 0.0 | 0.00 | 0.00 | 0.00 | 95 | 1015.8 |
| 20260506121524 | 50 | 5 | 0.0 | 0.0 | 0.00 | 0.00 | 0.00 | 94 | 1015.8 |
| 20260506121024 | 50 | 5 | 0.0 | 0.0 | 0.00 | 0.00 | 0.00 | 94 | 1015.9 |
| 20260506120527 | 50 | 5 | 0.0 | 0.0 | 0.00 | 0.00 | 0.00 | 94 | 1015.9 |
| 20260506120024 | 50 | 5 | 0.0 | 0.0 | 0.00 | 0.00 | 0.00 | 95 | 1015.9 |
| 20260506115526 | 50 | 5 | 0.0 | 0.0 | 0.00 | 0.00 | 0.00 | 95 | 1015.8 |
| 20260506115023 | 50 | 5 | 0.0 | 0.0 | 0.00 | 0.00 | 0.00 | 94 | 1015.8 |
| 20260506114528 | 50 | 5 | 0.0 | 0.0 | 0.00 | 0.00 | 0.00 | 94 | 1015.8 |
| 20260506114023 | 50 | 5 | 0.0 | 0.0 | 0.00 | 0.00 | 0.00 | 94 | 1015.8 |
| 20260506113523 | 50 | 5 | 0.0 | 0.0 | 0.00 | 0.00 | 0.00 | 94 | 1015.8 |
| 20260506113035 | 50 | 5 | 0.0 | 0.0 | 0.00 | 0.00 | 0.00 | 94 | 1015.8 |
| 20260506112522 | 50 | 5 | 0.0 | 0.0 | 0.00 | 0.00 | 0.00 | 94 | 1015.8 |
| 20260506112022 | 50 | 5 | 0.0 | 0.0 | 0.00 | 0.00 | 0.00 | 94 | 1015.8 |
| 20260506111522 | 50 | 5 | 0.0 | 0.0 | 0.00 | 0.00 | 0.00 | 94 | 1015.8 |
| 20260506111023 | 50 | 5 | 0.0 | 0.0 | 0.00 | 0.00 | 0.00 | 95 | 1015.7 |
| 20260506110523 | 50 | 5 | 0.0 | 0.0 | 0.00 | 0.00 | 0.00 | 94 | 1015.7 |
| 20260506110022 | 50 | 5 | 0.0 | 0.0 | 0.00 | 0.00 | 0.00 | 94 | 1015.7 |
| 20260506105521 | 50 | 5 | 0.0 | 0.0 | 0.00 | 0.00 | 0.00 | 94 | 1015.7 |
| 20260506105022 | 50 | 5 | 0.0 | 0.0 | 0.00 | 0.00 | 0.00 | 94 | 1015.7 |
| 20260506104524 | 50 | 5 | 0.0 | 0.0 | 0.00 | 0.00 | 0.00 | 94 | 1015.7 |
| 20260506104020 | 50 | 5 | 0.0 | 0.0 | 0.00 | 0.00 | 0.00 | 94 | 1015.7 |
| 20260506103521 | 50 | 5 | 0.0 | 0.0 | 0.00 | 0.00 | 0.00 | 94 | 1015.7 |
| 20260506103025 | 51 | 5 | 0.0 | 0.0 | 0.00 | 0.00 | 0.00 | 94 | 1015.7 |
| 20260506102520 | 50 | 5 | 0.0 | 0.0 | 0.00 | 0.00 | 0.00 | 94 | 1015.7 |
| 20260506102020 | 50 | 5 | 0.0 | 0.0 | 0.00 | 0.00 | 0.00 | 94 | 1015.7 |
| 20260506101520 | 50 | 5 | 0.0 | 0.0 | 0.00 | 0.00 | 0.00 | 94 | 1015.7 |
| 20260506101019 | 50 | 5 | 0.0 | 0.0 | 0.00 | 0.00 | 0.00 | 94 | 1015.6 |
| 20260506100519 | 50 | 5 | 0.0 | 0.0 | 0.00 | 0.00 | 0.00 | 94 | 1015.6 |
| 20260506100019 | 50 | 5 | 0.0 | 0.0 | 0.00 | 0.00 | 0.00 | 94 | 1015.6 |
| 20260506095518 | 50 | 5 | 0.0 | 0.0 | 0.00 | 0.00 | 0.00 | 94 | 1015.7 |
| 20260506095018 | 50 | 5 | 0.0 | 0.0 | 0.00 | 0.00 | 0.00 | 94 | 1015.7 |
| 20260506094517 | 49 | 5 | 0.0 | 0.0 | 0.00 | 0.00 | 0.00 | 94 | 1015.7 |
| 20260506094016 | 50 | 5 | 0.0 | 0.0 | 0.00 | 0.00 | 0.00 | 94 | 1015.7 |
| 20260506093516 | 50 | 5 | 0.0 | 0.0 | 0.00 | 0.00 | 0.00 | 94 | 1015.7 |
| 20260506093015 | 50 | 257 | 0.0 | 0.0 | 0.00 | 0.00 | 0.00 | 94 | 1015.7 |
| 20260506092515 | 50 | 257 | 0.0 | 0.0 | 0.00 | 0.00 | 0.00 | 94 | 1015.7 |
| 20260506092014 | 51 | 257 | 0.0 | 0.0 | 0.00 | 0.00 | 0.00 | 94 | 1015.7 |
| 20260506091513 | 51 | 257 | 0.0 | 0.0 | 0.00 | 0.00 | 0.00 | 94 | 1015.7 |
| 20260506091013 | 51 | 257 | 0.0 | 0.0 | 0.00 | 0.00 | 0.00 | 94 | 1015.8 |
| 20260506090511 | 51 | 257 | 0.0 | 0.0 | 0.00 | 0.00 | 0.00 | 94 | 1015.8 |
| 20260506090015 | 52 | 257 | 0.0 | 0.0 | 0.00 | 0.00 | 0.00 | 94 | 1015.8 |
| 20260506085509 | 52 | 257 | 0.0 | 0.0 | 0.00 | 0.00 | 0.00 | 94 | 1016.0 |
| 20260506085011 | 52 | 257 | 0.0 | 0.0 | 0.00 | 0.00 | 0.00 | 94 | 1016.0 |
| 20260506084509 | 52 | 257 | 0.0 | 0.0 | 0.00 | 0.00 | 0.00 | 94 | 1016.0 |
| 20260506084012 | 52 | 165 | 0.0 | 0.0 | 0.00 | 0.00 | 0.00 | 94 | 1016.0 |
| 20260506083509 | 52 | 165 | 0.0 | 0.0 | 0.00 | 0.00 | 0.00 | 94 | 1016.0 |
| 20260506083008 | 52 | 165 | 0.0 | 0.0 | 0.00 | 0.00 | 0.00 | 94 | 1016.0 |
| 20260506082508 | 52 | 186 | 0.0 | 0.0 | 0.00 | 0.00 | 0.00 | 94 | 1016.1 |
| 20260506082010 | 52 | 186 | 0.9 | 0.0 | 0.00 | 0.00 | 0.00 | 94 | 1016.1 |
| 20260506081509 | 52 | 184 | 0.9 | 0.0 | 0.00 | 0.00 | 0.00 | 94 | 1016.1 |
| 20260506081013 | 52 | 167 | 0.9 | 0.0 | 0.00 | 0.00 | 0.00 | 94 | 1016.2 |
| 20260506080508 | 52 | 184 | 0.9 | 0.0 | 0.00 | 0.00 | 0.00 | 94 | 1016.2 |
| 20260506073505 | 52 | 172 | 0.0 | 0.0 | 0.00 | 0.00 | 0.00 | 94 | 1016.2 |
| 20260506073005 | 52 | 172 | 0.9 | 0.0 | 0.00 | 0.00 | 0.00 | 94 | 1016.2 |
| 20260506072505 | 52 | 172 | 0.9 | 0.0 | 0.00 | 0.00 | 0.00 | 94 | 1016.1 |
| 20260506072005 | 52 | 172 | 0.9 | 0.0 | 0.00 | 0.00 | 0.00 | 94 | 1016.1 |
| 20260506071505 | 52 | 170 | 0.9 | 0.0 | 0.00 | 0.00 | 0.00 | 94 | 1016.1 |
| 20260506071006 | 52 | 174 | 0.9 | 0.0 | 0.00 | 0.00 | 0.00 | 94 | 1016.0 |
| 20260506070503 | 52 | 182 | 0.9 | 0.0 | 0.00 | 0.00 | 0.00 | 94 | 1016.0 |
| 20260506062502 | 52 | 171 | 1.7 | 0.0 | 0.00 | 0.00 | 0.00 | 94 | 1015.7 |
| 20260506062002 | 53 | 360 | 0.9 | 0.0 | 0.00 | 0.00 | 0.00 | 94 | 1015.7 |
| 20260506061501 | 53 | 167 | 0.9 | 0.0 | 0.00 | 0.00 | 0.00 | 93 | 1015.7 |
| 20260506061003 | 53 | 166 | 1.7 | 0.0 | 0.00 | 0.00 | 0.00 | 93 | 1015.7 |
| 20260506060501 | 53 | 169 | 1.7 | 0.0 | 0.00 | 0.00 | 0.00 | 93 | 1015.7 |
| 20260506051058 | 53 | 166 | 1.7 | 0.0 | 0.00 | 0.00 | 0.00 | 93 | 1015.2 |
| 20260506050558 | 53 | 167 | 1.7 | 0.0 | 0.00 | 0.00 | 0.00 | 93 | 1015.2 |
| 20260506050106 | 53 | 161 | 1.7 | 0.0 | 0.00 | 0.00 | 0.00 | 93 | 1015.2 |
| 20260506045056 | 53 | 161 | 0.9 | 0.0 | 0.00 | 0.00 | 0.00 | 92 | 1015.1 |
| 20260506044556 | 53 | 176 | 0.9 | 0.0 | 0.00 | 0.00 | 0.00 | 92 | 1015.1 |
| 20260506044056 | 53 | 175 | 0.9 | 0.0 | 0.00 | 0.00 | 0.00 | 92 | 1015.0 |
| 20260506043556 | 53 | 178 | 0.9 | 0.0 | 0.00 | 0.00 | 0.00 | 92 | 1015.0 |
| 20260506043100 | 53 | 160 | 0.9 | 0.0 | 0.00 | 0.00 | 0.00 | 92 | 1015.0 |
| 20260506042557 | 53 | 160 | 0.9 | 0.0 | 0.00 | 0.00 | 0.00 | 91 | 1014.7 |
| 20260506042057 | 54 | 160 | 0.9 | 0.0 | 0.00 | 0.00 | 0.00 | 91 | 1014.7 |
| 20260506041601 | 54 | 160 | 0.9 | 0.0 | 0.00 | 0.00 | 0.00 | 91 | 1014.7 |
| 20260506041056 | 54 | 160 | 0.9 | 0.0 | 0.00 | 0.00 | 0.00 | 90 | 1014.7 |